Regional Weather Roundup
Issued by NWS

Home | Current Version | Previous Version | Text Only | Print | Product List | Glossary Off
Versions: 1 2 3 4 5 6 7 8 9 10 11 12 13 14 15 16 17 18 19 20 21 22 23 24 25 26 27 28 29 30 31 32 33 34 35 36 37 38 39 40 41 42 43 44 45 46 47 48 49 50

736
ASUS43 KDMX 210706
RWRIA

WEATHER ROUNDUP FOR IOWA
NATIONAL WEATHER SERVICE DES MOINES IA
100 AM CST SUN JAN 21 2018

NOTE: "FAIR" INDICATES FEW OR NO CLOUDS BELOW 12,000 FEET WITH NO
SIGNIFICANT WEATHER AND/OR OBSTRUCTIONS TO VISIBILITY.

* - THESE STATIONS ARE NOT NWS STATIONS...THUS NOT UNDER NWS
QUALITY CONTROL.  THEY ALSO DO NOT REPORT WEATHER SUCH
AS PRECIPITATION OR FOG.

IAZ001>003-012>014-020>022-031>034-043>046-210800-
   NORTHWEST IOWA

CITY           SKY/WX    TMP DP  RH WIND       PRES   REMARKS
CARROLL *      CLOUDY    34  32  93 N3        29.88S
CHEROKEE *     CLOUDY    29  29 100 N7        29.90F WCI  22
DENISON *      CLOUDY    34  32  93 N5        29.89S WCI  30
LE MARS *      CLOUDY    27  27 100 NE5       29.91S WCI  21
ORANGE CITY *  CLOUDY    34  30  86 NE5       29.91S WCI  30
SHELDON *      CLOUDY    30  30 100 NE9       29.90S WCI  22
SIOUX CITY     CLOUDY    35  31  85 SW7       29.88F WCI  29
SPENCER        CLOUDY    30  27  88 N6        29.92S WCI  24
STORM LAKE *   CLOUDY    32  30  93 N9        29.88F WCI  24
$$

IAZ055>058-069>071-079>083-090>094-210800-
   SOUTHWEST IOWA

CITY           SKY/WX    TMP DP  RH WIND       PRES   REMARKS
ATLANTIC *     CLOUDY    37  37 100 CALM      29.86S
AUDUBON *      CLOUDY    37  36  93 CALM      29.87F
CLARINDA *     CLOUDY    39  39 100 CALM        N/A
COUNCIL BLFS * CLOUDY    39  39 100 MISG      29.84F
CRESTON *      CLOUDY    41  39  93 E7        29.86F
HARLAN  *      CLOUDY    36  36 100 CALM      29.89S
LAMONI         CLOUDY    43  40  89 NE5       29.85F
RED OAK *      CLOUDY    41  39  93 N5        29.85S
SHENANDOAH *   CLOUDY    39  39 100 NE7       29.85S FOG     WCI  34
$$

IAZ047>049-059>061-072>074-084-210800-
   CENTRAL IOWA

CITY           SKY/WX    TMP DP  RH WIND       PRES   REMARKS
AMES           CLOUDY    35  35 100 CALM      29.90S FOG
ANKENY *       CLOUDY    37  36  93 N5        29.90F FOG     WCI  34
BOONE *        CLOUDY    36  34  93 CALM      29.88F FOG
CHARITON *     CLOUDY    41  39  93 SE5       29.87F
DES MOINES     CLOUDY    40  36  86 E8        29.88F WCI  34
GRINNELL*      CLOUDY    36  35  94 E5        29.91S FOG     WCI  32
KNOXVILLE *    CLOUDY    41  37  87 NE5       29.87F
MARSHALLTOWN   CLOUDY    36  35  96 E5        29.89F FOG     WCI  32
NEWTON *       CLOUDY    37  37 100 E5        29.90F WCI  34
PELLA *        CLOUDY    40  38  90 CALM      29.91S
PERRY *        CLOUDY    37  36  96 NE5       29.87F FOG     WCI  33
$$

IAZ004>006-015-016-023>025-035-036-210800-
   NORTH CENTRAL IOWA

CITY           SKY/WX    TMP DP  RH WIND       PRES   REMARKS
ALGONA *       CLOUDY    30 N/A N/A CALM      29.91S
CLARION *        N/A     30  30 100 NE8       29.90F WCI  23
ESTHERVILLE    CLOUDY    29  29 100 N5        29.92R WCI  24
FORT DODGE *   CLOUDY    29  28  96 N5        29.90S FOG     WCI  24
MASON CITY     CLOUDY    27  26  96 N5        29.92F FOG     WCI  22
FOREST CITY *    N/A     30  30 100 CALM      29.92R FOG
WEBSTER CITY * CLOUDY    30  30 100 CALM      29.88F FOG
IOWA FALLS *     N/A     30  29  97 CALM      29.91S FOG
$$

IAZ007>011-017>019-026>030-037>042-050>054-066-210800-
   NORTHEAST IOWA

CITY           SKY/WX    TMP DP  RH WIND       PRES   REMARKS
CEDAR RAPIDS   CLOUDY    38  36  92 E6        29.91F FOG     WCI  33
CHARLES CITY *   N/A     32  32 100 E3        29.91F FOG
CLINTON *      CLOUDY    36  35  96 SE7       29.96R FOG     WCI  30
DECORAH *        N/A     34  34 100 CALM      29.91F
DUBUQUE        MOCLDY    33  31  92 NE6       29.93F FOG     WCI  28
MONTICELLO *   CLOUDY    32  32 100 CALM      29.93S FOG
OELWEIN *      FOG       30  30 100 E5        29.92F VSB<1/4 WCI  25
WATERLOO       FOG       25  24  96 NE5       29.92F VSB 1/4 WCI  19
$$

IAZ064-065-067-068-078-210800-
   EAST CENTRAL IOWA

CITY           SKY/WX    TMP DP  RH WIND       PRES   REMARKS
DAVENPORT      CLOUDY    40  36  86 SE5       29.95S FOG
IOWA CITY      CLOUDY    39  35  86 CALM      29.94F
MT. PLEASANT * CLOUDY    41  37  87 SE5       29.92F
MUSCATINE *    CLOUDY    37  36  93 CALM      29.94F
QUAD CITIES    CLOUDY    40  37  89 CALM      29.93S
$$

IAZ062-063-075>077-085>089-095>099-210800-
   SOUTHEAST IOWA

CITY           SKY/WX    TMP DP  RH WIND       PRES   REMARKS
BURLINGTON     CLOUDY    42  38  85 SE3       29.92F
FAIRFIELD *    CLOUDY    41  39  93 SE6       29.90F
FORT MADISON * CLOUDY    43  39  87 CALM      29.93F
KEOKUK *       CLOUDY    43  39  87 MISG      29.92S
OSKALOOSA *    CLOUDY    40  38  92 SE6       29.90F
OTTUMWA        CLOUDY    41  37  86 E6        29.89F
WASHINGTON *   CLOUDY    39  39 100 CALM      29.93F FOG
$$

ABBREVIATIONS USED IN REMARKS
   TC - TEMPERATURES IN CELSIUS
  WCI - WIND CHILL INDEX
   HX - HEAT INDEX
  VSB - VISIBILITY
$$





USA.gov is the U.S. government's official web portal to all federal, state and local government web resources and services.